Theta_e
287 288 287 286 286 285 285 285 285 285 285 286 286 287 287 288 288 288 289 290 289 289 289 289 288 288 288 288 288 289 289 290 291 291 291 292 293 293 294 295 296 296 296 297 299 301 300 299 300 302 305 308 308 308 310 316 316 316 315 314 314 312 311 313 314 313 310 305 307 307 306 307 307 311 312 313 316 317 317 317 317 317 317 317 318
285 285 286 284 284 285 285 284 286 285 285 285 286 286 287 287 287 288 289 289 289 289 289 289 289 288 288 288 288 289 289 289 289 290 291 292 292 293 294 295 295 296 296 297 299 299 297 297 298 301 304 306 306 307 308 311 314 315 314 312 314 313 311 312 312 312 308 306 304 302 304 306 305 307 310 310 311 314 316 317 316 317 316 316 316
282 283 284 283 284 284 283 284 284 284 284 285 285 286 287 287 288 288 288 288 289 289 289 288 288 288 288 288 288 288 289 289 289 290 291 291 292 292 293 294 295 295 296 296 298 298 297 298 298 300 301 303 303 304 306 307 311 314 314 312 311 313 312 312 312 313 309 309 307 304 301 302 302 304 304 306 308 312 313 315 316 316 316 316 316
282 282 282 282 282 282 282 283 283 284 284 284 285 286 287 288 287 287 288 288 288 288 289 288 288 288 287 287 286 286 285 287 287 288 289 290 290 292 292 293 294 295 295 295 297 297 297 298 299 299 299 302 303 303 304 305 307 312 313 312 313 309 308 309 312 313 312 309 302 304 303 304 298 301 304 302 301 308 313 314 315 316 316 316 316
281 282 281 281 281 281 282 283 283 283 284 285 285 286 287 287 287 287 287 287 288 288 287 287 286 285 284 284 284 283 283 284 284 285 287 288 288 289 291 292 293 293 294 294 295 296 297 298 298 298 298 301 302 303 303 305 307 310 314 311 312 310 308 309 310 311 311 313 309 302 299 299 301 303 304 299 300 306 307 313 312 315 315 315 316
282 282 282 282 281 281 282 282 283 283 284 285 286 287 286 287 287 287 287 287 286 286 286 285 284 282 281 280 279 279 279 280 280 281 281 282 283 286 288 291 292 292 293 294 295 296 297 297 297 298 298 300 301 302 303 305 306 308 312 312 311 312 310 309 308 310 312 311 311 311 306 301 301 303 304 298 297 298 300 302 312 314 314 314 316
282 282 281 281 280 281 282 282 282 283 284 285 286 286 286 286 286 286 285 285 285 285 284 284 282 281 280 280 279 279 279 280 282 282 282 282 283 284 286 288 290 291 292 293 294 296 296 295 296 297 298 300 301 301 301 302 304 305 308 313 312 311 311 308 308 309 310 310 310 310 301 303 307 305 303 302 297 299 298 300 305 313 313 313 314
281 281 281 280 280 281 281 282 283 283 284 285 285 286 285 285 285 285 284 284 284 284 283 283 281 281 280 279 280 279 280 280 281 281 282 282 283 284 285 286 288 290 292 292 294 295 295 295 296 297 299 300 299 299 299 302 304 306 307 310 313 312 311 310 309 310 308 308 309 307 301 305 308 309 310 305 304 299 298 297 298 301 312 313 313
280 280 280 280 281 281 282 282 283 283 284 285 285 285 285 285 284 284 283 283 283 282 282 282 281 281 280 279 278 280 280 280 281 281 281 281 281 281 282 283 285 287 289 291 292 293 294 294 295 296 298 298 298 298 299 300 302 303 303 303 309 311 312 312 311 310 310 309 308 305 301 303 306 306 304 301 305 301 301 301 302 300 306 312 313
280 280 280 281 281 282 282 282 283 283 284 285 284 284 284 284 283 283 282 282 282 281 281 281 280 280 279 279 278 278 279 278 279 279 279 280 280 280 281 282 283 285 287 289 291 293 294 294 295 296 297 298 297 298 299 299 302 302 303 303 305 310 312 311 311 311 311 311 310 306 302 300 303 300 298 301 300 306 302 301 303 302 304 307 308
280 280 280 281 282 282 282 282 282 283 283 283 283 283 283 283 282 281 281 281 281 280 280 280 280 279 279 278 278 277 277 277 277 277 278 279 279 279 280 281 282 284 285 287 290 293 294 294 294 295 297 297 297 298 298 299 300 301 303 303 302 303 311 311 309 311 311 310 310 308 304 303 303 302 302 302 303 296 298 303 304 306 307 302 303
280 280 280 280 281 281 281 282 282 282 282 282 282 282 282 282 281 280 280 280 280 280 279 279 279 279 278 278 277 277 277 277 276 276 277 278 278 278 279 279 280 283 284 285 286 290 293 293 294 295 296 297 297 298 298 298 299 300 302 302 302 302 304 309 310 310 310 310 310 309 306 305 305 305 305 305 304 303 304 303 303 303 301 295 295
279 280 280 280 280 281 281 281 281 281 281 281 281 281 281 281 280 279 279 279 279 279 278 278 278 278 277 277 277 278 277 277 277 277 278 277 278 277 277 278 279 280 281 282 283 285 289 292 293 294 295 296 296 296 297 297 298 299 300 301 301 301 301 305 309 309 310 309 309 309 308 305 305 306 306 305 306 305 304 302 303 305 302 296 293
280 280 280 279 279 280 280 280 280 281 281 281 280 280 280 280 279 279 278 279 278 278 278 277 277 277 277 277 277 277 276 277 277 277 277 278 278 277 277 277 277 278 279 280 282 284 287 290 292 293 295 295 295 295 296 297 297 297 298 299 299 300 301 302 308 309 310 310 310 309 307 305 304 304 305 305 304 303 302 302 301 296 301 298 292
279 279 280 280 280 280 280 280 280 280 280 280 280 279 279 279 279 278 278 278 278 277 277 277 277 277 277 277 277 276 276 277 277 277 277 277 277 277 277 277 277 278 279 280 282 283 285 288 291 293 294 294 294 295 295 296 297 297 297 298 299 300 301 301 305 309 309 309 309 309 307 306 304 304 305 305 306 305 304 303 302 296 292 292 295
280 279 279 279 279 280 280 279 279 279 279 279 279 279 278 278 278 278 277 277 277 277 276 276 276 276 276 276 276 276 277 276 276 276 276 276 276 277 276 277 277 278 279 280 281 282 284 287 291 292 293 293 293 294 294 293 294 294 295 297 298 300 300 301 303 309 309 309 309 309 307 305 304 304 305 305 306 306 305 305 304 302 297 293 292
279 279 279 279 278 279 279 279 278 279 279 279 278 278 278 277 277 277 277 277 277 277 276 276 276 275 275 275 275 275 275 274 274 274 275 276 276 276 276 276 277 277 278 280 280 282 283 286 288 291 291 292 292 291 292 292 293 293 294 295 296 299 299 300 302 307 309 310 309 308 307 306 304 304 305 305 305 305 306 306 306 305 303 298 295
279 279 279 279 279 279 279 279 278 278 278 278 278 278 278 277 277 276 276 276 276 276 276 276 275 275 274 274 274 274 274 274 274 274 274 274 274 275 275 275 275 277 278 279 280 281 283 285 287 289 290 289 290 290 290 291 292 293 293 294 296 299 299 300 301 304 309 310 309 308 308 306 304 304 305 305 305 305 305 306 307 307 306 302 300
278 278 278 278 278 279 278 277 278 278 278 278 278 278 277 277 277 276 275 276 276 276 276 275 275 274 274 274 273 274 273 273 274 273 273 273 273 273 274 274 275 276 278 279 279 279 280 283 286 288 289 289 289 289 290 290 291 291 292 293 295 298 299 299 302 304 308 309 308 307 307 307 305 304 304 304 304 305 305 306 306 306 306 305 303
278 278 278 278 278 277 277 276 276 277 277 277 277 277 276 276 276 275 276 275 275 275 275 274 274 274 273 273 273 273 273 273 273 272 272 272 272 273 273 274 274 276 277 279 278 278 279 281 284 288 289 289 288 289 289 289 290 290 291 292 294 296 297 299 300 303 307 308 308 307 306 306 305 305 304 304 304 304 305 305 305 305 305 305 305
277 277 277 277 277 277 276 276 277 276 276 277 276 276 276 276 275 275 274 274 274 274 274 274 274 273 273 272 272 272 272 272 272 272 271 271 272 273 273 274 274 275 277 277 277 277 278 280 282 285 287 288 288 288 288 289 289 289 290 291 293 294 295 297 300 301 305 308 307 307 306 306 306 305 304 304 304 304 305 305 305 305 304 303 304
277 277 276 277 276 276 275 276 276 276 276 275 276 275 275 274 274 274 274 273 273 273 273 273 273 273 272 272 272 272 272 272 271 271 271 271 271 272 273 273 273 274 275 276 276 277 278 279 279 281 284 287 289 289 288 288 288 288 289 291 291 292 293 295 299 301 304 307 307 307 306 305 305 305 304 304 304 304 304 303 304 304 301 302 304
278 276 276 276 276 275 276 276 276 276 275 275 275 275 274 274 274 274 273 273 273 273 273 273 272 272 272 272 272 271 271 271 270 270 270 270 271 271 272 272 273 274 275 275 276 277 277 278 278 280 282 286 288 288 287 287 287 288 288 288 290 291 292 293 296 299 303 306 306 305 305 305 305 305 304 303 303 303 304 303 303 303 302 301 299
277 276 276 276 275 275 276 276 276 275 275 274 274 274 274 273 273 273 272 272 272 272 272 272 272 272 272 272 271 271 271 270 270 270 270 270 270 271 272 272 273 274 274 275 276 276 277 277 278 279 281 285 288 288 288 287 287 287 287 288 288 289 290 292 294 297 302 305 305 305 305 304 304 304 303 303 303 304 303 303 302 301 301 299 299
276 276 276 275 275 275 275 275 275 275 274 274 274 273 273 273 273 272 272 272 272 272 272 271 271 271 271 271 271 271 271 270 270 270 269 270 270 270 271 271 272 272 273 273 274 276 276 277 277 278 279 282 287 288 288 287 287 287 287 287 288 288 289 290 292 295 299 305 305 305 304 304 303 303 301 302 303 302 304 303 302 301 300 300 299
276 275 275 274 274 275 275 275 274 274 274 273 273 273 272 272 272 272 272 272 271 271 271 270 271 270 270 270 270 270 271 270 270 269 269 269 270 270 270 271 271 271 272 273 274 275 276 276 277 277 277 278 281 286 288 287 287 287 287 287 287 288 288 290 291 294 298 304 306 305 304 303 303 302 301 302 302 302 303 302 301 300 300 299 298
275 275 274 274 275 274 274 274 274 273 273 273 272 272 272 271 271 271 271 271 271 270 270 270 270 270 270 270 270 270 270 269 270 269 270 269 269 269 269 270 271 272 272 273 273 274 275 275 276 276 276 277 278 281 285 287 287 287 287 287 287 287 288 289 291 293 297 302 306 306 304 303 303 303 302 302 302 303 303 302 301 301 299 299 297
275 274 274 274 274 274 274 273 273 273 272 272 272 271 271 271 270 270 271 270 270 270 269 269 269 269 269 269 269 270 270 270 270 270 269 269 269 269 269 270 270 270 270 270 271 272 273 274 275 275 276 277 278 279 282 285 286 286 286 286 287 287 287 288 290 293 295 300 305 305 304 303 304 304 303 303 303 303 303 301 302 301 300 298 295
274 273 273 273 273 273 273 273 272 272 271 271 271 270 270 270 270 270 270 270 270 269 268 268 268 268 268 269 269 270 270 269 269 268 268 268 268 269 269 269 269 269 270 271 271 272 272 273 274 275 276 277 278 279 281 284 286 286 286 287 287 287 287 287 288 290 293 297 303 305 304 303 301 299 298 300 301 301 303 299 300 300 297 296 294
273 273 273 273 273 273 272 272 272 271 270 270 270 269 269 269 269 269 269 269 269 268 267 267 266 267 269 269 269 269 269 269 268 268 268 268 268 268 268 268 268 269 269 270 271 271 272 273 274 275 276 277 277 279 281 283 285 285 286 287 287 287 287 287 287 288 291 295 301 304 302 298 296 296 296 297 298 299 299 301 301 298 296 295 294
272 272 273 273 272 272 272 271 271 270 270 269 269 269 269 268 268 268 268 268 268 266 266 266 266 267 268 268 268 268 268 268 267 267 267 266 267 267 267 267 267 268 268 269 270 271 272 273 274 274 275 276 277 278 281 283 285 287 287 287 287 287 287 287 287 288 290 293 299 303 303 297 295 295 296 296 298 298 298 298 298 298 297 296 294
272 272 272 272 272 271 271 270 270 270 269 269 268 268 268 267 267 267 267 267 266 265 265 265 266 267 267 268 268 267 267 267 266 266 266 266 266 266 266 266 267 267 268 269 269 269 270 271 272 273 275 276 277 279 282 283 284 286 288 287 288 288 287 287 287 288 289 292 297 302 302 300 299 299 299 298 297 297 297 297 297 297 296 297 297
272 272 272 271 271 271 270 270 270 269 269 269 268 267 267 267 266 267 266 265 265 265 265 265 266 266 266 267 267 267 266 265 265 265 265 265 265 266 266 266 266 267 268 267 268 269 270 272 273 274 275 276 277 280 283 284 285 286 287 288 288 288 287 287 287 287 289 291 295 300 301 301 301 294 295 299 299 297 295 296 296 296 295 296 297
272 272 271 271 271 270 270 270 269 269 269 269 268 267 267 267 266 266 265 264 264 264 264 265 265 266 266 266 266 265 265 265 265 264 264 264 264 264 265 266 266 266 266 267 268 268 270 271 272 274 275 277 278 281 283 284 285 286 288 288 288 288 288 287 287 287 289 290 294 299 300 299 299 297 298 299 299 298 296 294 294 296 296 295 296
271 271 271 270 270 270 269 269 268 268 268 268 267 267 266 265 265 264 264 263 263 263 263 264 264 265 265 265 264 264 264 264 264 264 264 263 264 264 265 265 266 266 266 266 267 268 269 270 271 274 276 276 277 281 282 283 284 286 288 289 289 289 288 288 288 288 289 291 293 299 300 300 299 297 298 298 298 296 293 293 293 293 294 295 297
271 270 270 269 269 269 268 268 268 268 267 267 266 266 264 263 264 263 263 262 262 262 263 264 264 263 263 263 263 262 262 262 262 263 263 263 263 264 264 265 266 266 267 268 268 270 270 270 271 272 273 275 277 281 282 283 284 286 289 288 288 287 287 287 287 288 289 291 294 298 300 300 299 298 296 296 296 295 293 292 292 292 293 295 296
271 271 270 269 269 268 268 268 267 267 266 265 265 264 263 262 262 262 262 262 262 262 262 262 262 262 262 262 262 261 261 261 261 262 262 262 263 264 264 265 265 266 266 267 268 269 271 272 273 274 275 276 276 279 282 283 284 286 287 287 287 286 286 287 287 288 289 291 294 298 300 300 299 298 296 297 297 295 292 292 292 291 292 293 294
270 270 269 268 268 268 268 267 266 265 265 265 264 263 262 261 261 261 261 261 261 261 262 262 261 261 261 261 261 261 260 260 261 261 262 263 264 264 265 266 265 265 266 267 268 268 270 271 271 272 276 277 278 281 283 284 285 286 286 285 286 286 286 286 287 288 290 292 295 294 296 299 298 298 296 297 297 294 293 292 291 291 290 291 292
269 268 268 267 267 267 266 266 264 263 264 263 262 262 261 260 260 260 260 260 260 260 260 260 260 260 260 260 260 260 260 260 260 261 263 264 264 264 265 266 266 266 267 268 268 268 269 271 272 273 276 278 279 280 283 284 285 287 286 286 286 286 286 286 287 287 289 292 295 294 294 297 298 296 296 297 296 294 293 292 292 291 290 290 291
268 268 268 267 266 265 264 264 263 263 263 262 261 261 259 259 259 259 259 259 259 260 260 260 260 260 260 260 260 260 260 260 261 262 264 265 265 265 266 266 267 267 267 268 269 269 269 270 273 275 277 279 279 280 282 284 285 287 288 287 286 286 286 286 287 287 289 291 294 296 295 297 297 297 296 297 296 295 293 293 292 292 291 291 291
267 267 268 265 265 264 263 263 263 263 262 261 260 259 258 258 259 258 258 259 259 259 259 259 259 259 258 259 260 261 261 262 264 265 265 265 266 267 267 267 267 268 268 268 268 269 270 271 273 275 277 279 280 281 283 285 286 287 288 288 287 286 287 287 287 287 290 292 294 296 297 296 297 296 296 296 296 296 295 293 293 293 293 293 291
268 268 266 264 264 263 263 262 262 262 261 260 259 258 258 258 257 257 258 259 259 259 258 258 258 258 258 259 260 261 262 263 265 265 265 265 266 267 268 269 269 268 268 268 269 270 270 271 273 276 279 280 281 282 282 285 287 288 289 290 288 287 287 287 287 288 291 293 294 296 297 296 296 296 296 296 296 296 295 293 294 295 295 294 291
265 264 265 264 262 262 262 262 262 261 260 260 258 257 257 257 256 257 258 258 258 258 257 257 257 257 258 259 260 261 263 264 265 265 264 264 265 266 267 269 270 269 269 269 270 270 271 272 275 278 280 282 283 284 286 285 287 288 289 290 290 289 289 288 287 288 290 293 295 296 295 295 295 295 295 296 296 296 295 294 295 295 294 293 291
264 264 263 261 261 261 261 261 261 260 259 259 257 256 256 256 256 258 258 257 257 256 256 256 256 257 258 260 261 262 263 264 264 264 264 264 264 265 266 268 270 271 271 271 271 272 273 274 276 279 280 282 283 283 285 286 286 287 288 289 289 290 290 288 288 289 292 294 295 295 295 295 295 295 295 296 296 295 294 295 295 295 293 292 291
263 263 262 261 261 259 259 259 259 259 258 258 257 256 255 255 257 257 257 256 255 255 255 255 256 257 258 260 261 262 263 263 263 263 263 263 263 264 265 267 269 272 273 273 273 275 276 278 280 280 281 282 283 284 284 285 286 287 288 289 289 289 290 290 288 290 292 294 294 295 295 294 294 295 295 295 295 294 295 295 294 293 291 291 291
262 261 262 260 259 257 257 257 257 258 258 258 257 256 254 255 257 256 256 255 254 254 254 255 256 257 259 260 261 262 262 262 263 263 263 263 263 263 264 266 268 270 271 272 274 277 277 279 280 280 281 282 283 284 285 285 286 286 287 288 289 289 289 290 290 290 292 294 294 294 294 294 294 294 294 294 293 294 294 293 293 292 291 291 291
260 261 259 258 256 256 256 255 255 257 257 257 256 256 256 256 255 256 255 254 253 253 254 255 256 257 259 260 261 261 261 261 262 262 262 262 263 263 264 265 267 267 268 269 272 275 279 281 281 282 283 283 284 284 285 286 287 287 288 288 288 288 289 289 289 290 292 293 293 293 293 293 293 293 293 293 293 293 292 292 292 292 292 291 291
261 260 258 256 256 255 255 255 255 256 257 256 256 255 255 255 255 255 254 253 253 253 253 254 256 258 259 260 260 261 261 260 261 261 261 261 261 262 263 264 265 266 266 268 270 273 275 277 280 283 284 284 285 285 286 286 287 288 288 289 288 288 289 290 290 291 292 293 293 292 293 293 293 292 293 293 293 292 292 291 291 291 291 291 290
260 258 257 256 255 254 254 254 255 256 256 255 255 255 255 255 255 254 253 252 252 253 253 254 256 257 258 260 260 260 260 260 260 260 261 261 261 262 262 264 266 267 268 268 269 271 274 275 277 278 279 281 284 285 286 288 288 289 288 288 288 289 290 291 291 293 291 291 292 292 292 292 292 291 291 292 292 291 291 291 290 291 291 290 290
259 258 256 255 254 254 253 254 255 255 255 254 254 254 254 255 254 253 253 252 252 252 253 254 256 257 258 259 259 259 259 259 259 259 259 259 263 267 265 264 264 269 272 273 273 271 273 274 274 276 278 279 281 284 288 288 288 289 290 290 290 291 292 292 292 293 292 291 291 291 291 291 291 291 291 291 291 291 290 290 290 290 290 290 290
257 255 254 254 254 254 253 253 254 255 254 253 253 253 253 254 254 253 253 252 252 252 253 254 255 256 258 259 259 259 259 259 259 258 258 258 258 260 265 268 269 269 270 272 272 274 276 276 274 273 276 280 282 284 287 288 288 289 290 291 291 291 292 293 293 291 291 291 290 290 290 291 291 291 290 290 290 290 290 290 290 290 290 290 289
Wind_Speed
1 0 1 3 5 5 5 5 5 6 6 7 9 9 10 12 12 13 12 13 13 14 14 14 15 15 15 15 16 15 14 14 14 13 14 14 14 13 13 12 12 13 12 10 9 8 6 6 8 10 11 12 12 13 16 17 13 13 15 16 18 14 10 10 12 12 11 6 6 7 6 4 3 7 6 6 8 8 9 9 9 8 8 8 7
2 2 3 4 5 7 6 5 6 9 9 8 9 9 9 11 11 14 13 14 14 14 13 13 12 13 14 15 16 17 15 13 15 15 15 15 14 13 13 13 13 13 12 10 8 7 7 6 7 9 10 11 12 14 14 15 12 14 14 11 12 18 12 15 14 14 10 13 12 6 5 4 4 3 4 4 4 6 8 9 8 12 10 8 7
2 2 2 3 5 5 4 6 7 5 6 7 7 9 10 11 12 13 14 15 14 14 12 13 14 15 14 14 15 15 15 16 17 18 17 18 16 14 13 13 13 12 12 10 9 7 7 6 7 7 9 10 12 13 12 14 15 15 15 14 11 9 11 14 18 19 14 9 8 12 8 5 1 1 2 2 3 5 5 8 11 9 11 11 7
1 2 2 4 4 5 6 6 6 5 6 6 8 10 10 12 13 15 16 15 14 13 14 16 17 16 15 16 17 16 18 18 20 18 17 18 18 15 13 12 13 12 11 9 9 9 7 7 7 6 8 8 10 13 12 13 15 15 15 17 20 14 7 11 16 16 14 17 11 11 10 12 9 7 6 1 2 2 5 6 6 10 11 10 9
2 1 2 2 4 4 5 5 4 5 6 8 9 10 10 13 14 14 14 14 13 14 15 15 15 15 15 18 17 17 14 12 13 15 13 15 17 17 16 13 12 11 12 13 12 11 8 7 7 7 7 7 9 11 12 11 14 15 17 17 18 18 15 12 12 12 15 18 18 9 5 6 14 14 10 1 1 3 4 6 6 9 11 12 11
3 1 1 1 2 4 5 5 5 6 8 8 9 11 13 13 13 13 13 13 14 15 16 15 15 16 17 17 20 17 18 14 12 14 16 16 16 18 20 19 15 13 12 12 11 9 9 8 7 7 7 6 7 10 12 11 12 14 16 13 13 12 16 14 13 12 14 14 11 18 14 11 15 10 14 7 1 2 1 2 8 10 8 12 12
1 1 1 1 4 4 3 4 6 8 6 7 9 11 12 12 11 12 13 13 14 15 17 15 16 16 17 17 15 16 18 17 14 14 13 16 17 20 18 19 19 17 14 13 12 11 9 7 7 7 7 7 6 8 11 12 11 13 13 13 16 15 11 15 18 16 11 11 10 9 3 6 12 18 15 10 10 2 0 3 5 9 10 10 14
2 2 2 3 4 2 4 5 6 6 6 7 9 10 11 11 10 12 12 13 13 14 15 15 15 15 17 17 17 16 16 19 18 16 16 15 18 17 15 16 19 18 16 12 10 8 8 8 7 7 6 7 6 7 10 11 10 10 11 18 19 18 21 17 19 17 18 15 14 11 5 7 16 15 16 22 20 17 8 1 2 3 10 10 10
3 2 3 4 2 2 3 6 6 6 6 8 10 10 10 10 11 11 13 13 13 15 15 15 14 14 14 14 18 16 16 16 17 17 16 16 19 17 17 18 17 19 18 15 14 13 11 9 8 7 6 6 6 6 9 12 12 11 11 14 16 13 14 19 18 18 19 19 16 9 7 8 13 10 9 5 12 14 13 16 12 2 5 9 10
2 4 4 3 1 2 3 5 6 5 6 8 9 9 10 10 12 12 14 12 13 15 15 15 15 13 14 16 19 19 16 17 16 17 16 16 17 16 15 15 14 16 17 18 17 15 12 9 7 7 6 6 6 7 8 12 12 11 10 10 13 15 11 11 16 18 18 17 19 16 12 10 12 7 5 10 6 16 18 13 15 17 16 10 10
3 4 4 2 1 3 5 6 5 5 6 8 10 10 11 11 12 14 14 12 13 14 15 16 15 14 14 17 19 20 19 18 18 19 17 16 14 15 16 16 15 15 15 15 17 15 11 8 8 8 7 6 6 6 6 8 10 11 10 10 13 15 14 14 13 14 16 16 18 15 16 18 19 18 17 14 14 7 6 14 13 13 16 12 8
4 4 4 1 4 6 5 6 5 6 7 9 10 11 11 11 12 15 15 14 13 14 15 15 14 14 15 17 18 17 17 16 18 20 19 16 15 15 14 15 16 15 14 15 15 16 13 10 8 7 7 6 6 6 5 6 8 9 9 8 9 12 16 15 15 14 16 13 18 16 16 16 16 18 16 17 16 15 16 14 13 8 6 3 2
4 4 1 4 6 6 6 5 5 5 7 9 11 11 12 12 13 15 17 15 15 16 16 16 16 16 16 18 18 16 17 17 18 18 16 15 14 14 15 16 16 16 15 16 17 19 15 13 8 7 7 6 6 5 6 7 7 8 9 10 9 11 14 17 14 16 16 15 17 16 15 13 13 12 14 15 12 11 15 16 10 14 15 8 2
4 1 4 4 4 4 4 4 4 5 7 10 11 11 11 12 13 15 17 15 15 16 17 17 17 16 15 16 16 16 17 17 16 15 15 14 13 15 14 15 15 17 17 17 16 18 16 15 11 8 8 7 6 6 6 7 6 7 8 9 11 10 11 16 18 19 18 17 14 14 13 13 11 10 13 12 12 13 12 16 14 4 8 10 4
1 4 3 3 4 4 4 4 4 5 8 10 10 11 12 13 14 16 17 17 16 17 17 19 17 17 16 16 16 14 14 14 15 14 15 16 16 15 14 13 14 16 17 16 17 18 18 17 16 11 9 8 6 6 6 6 7 7 7 9 9 9 11 12 19 19 19 20 15 14 15 14 11 11 13 14 14 16 17 16 16 13 5 3 7
2 3 2 3 3 4 4 4 4 5 8 9 10 11 12 13 15 16 16 16 15 16 17 17 18 16 17 18 18 15 15 14 13 14 15 15 16 15 14 14 13 14 16 15 17 16 16 18 16 12 9 8 6 5 5 6 7 6 6 8 11 9 10 13 15 17 19 21 18 14 12 13 11 11 14 15 13 13 14 16 18 20 18 9 2
1 1 1 3 4 4 3 3 4 7 9 10 11 10 11 14 14 17 17 16 17 17 16 15 16 17 18 18 16 16 15 16 17 19 20 16 14 13 13 14 16 14 13 13 17 14 15 15 17 15 11 9 7 6 6 6 7 6 5 8 11 9 10 11 12 16 17 19 16 18 15 12 11 11 12 13 12 12 14 16 18 20 20 19 14
0 1 2 3 3 4 3 2 4 6 9 11 12 10 11 11 13 15 16 18 18 18 18 16 16 17 18 18 18 16 16 18 16 19 18 16 15 13 13 13 14 15 14 13 13 16 14 16 15 15 12 9 8 6 6 6 6 6 5 6 9 10 11 9 10 14 18 16 19 15 15 13 10 12 14 14 14 14 14 15 16 16 18 20 17
1 2 3 3 4 5 3 3 4 5 7 8 9 10 12 12 11 12 15 14 14 15 15 14 14 13 13 16 17 17 17 16 17 17 16 16 16 14 14 14 16 16 15 12 13 13 13 15 15 15 13 11 9 7 6 6 6 6 5 6 7 9 10 10 11 13 16 17 19 18 16 15 12 13 14 14 14 14 15 15 14 13 15 19 19
2 2 3 4 4 4 2 4 6 7 7 7 8 10 13 12 12 13 14 13 15 15 15 16 15 14 16 16 16 16 16 16 17 14 15 14 17 16 15 17 14 15 14 13 12 12 14 14 15 14 13 11 9 8 6 6 6 6 5 5 6 8 11 11 11 11 13 17 20 20 18 15 14 13 13 14 14 14 14 14 14 14 14 13 16
3 3 3 4 4 2 3 4 5 6 5 6 8 10 11 11 13 13 14 16 16 16 16 15 15 15 16 17 17 16 18 16 15 16 15 17 17 16 15 13 14 14 13 16 13 15 13 14 15 15 14 13 12 10 6 6 6 6 5 4 5 8 11 11 10 12 14 16 17 20 20 17 16 15 14 14 14 14 14 14 13 13 13 11 13
3 3 3 4 3 2 4 4 4 5 7 9 10 10 11 13 13 13 13 13 14 16 16 17 15 15 15 17 17 15 16 14 17 16 15 16 13 16 13 14 15 12 13 14 16 13 12 13 12 14 14 15 13 12 8 5 6 6 6 3 5 7 10 12 11 12 13 15 17 19 19 17 17 18 16 15 15 15 15 15 14 13 13 13 12
3 2 3 3 2 3 4 6 7 8 9 10 10 10 11 13 14 13 14 16 15 15 15 15 15 15 16 17 16 17 16 17 17 13 17 14 16 14 14 14 13 14 13 14 14 14 14 12 13 12 14 15 14 11 9 6 6 6 6 5 4 6 9 11 12 12 13 16 18 20 20 18 16 17 17 16 15 16 16 17 17 14 14 12 9
2 2 3 2 1 4 5 8 9 9 10 11 10 11 12 12 13 14 15 16 16 15 16 16 16 16 16 16 15 16 15 15 14 15 14 15 15 12 14 13 16 11 13 13 12 14 13 14 14 12 13 14 13 10 10 7 7 6 6 6 6 7 8 11 12 13 13 16 16 18 19 19 18 18 18 16 16 16 16 16 17 14 14 13 11
1 2 1 1 3 5 6 7 8 9 10 11 12 12 12 14 13 14 15 15 15 15 16 18 16 19 18 17 18 17 18 17 16 13 16 17 13 14 11 15 14 15 14 15 13 13 13 13 12 13 14 14 13 11 11 9 7 6 6 6 7 8 9 11 12 13 14 17 16 18 18 19 19 18 17 17 16 19 17 16 17 14 14 13 11
1 2 1 3 4 5 7 8 8 9 10 11 13 13 13 13 14 12 14 16 16 15 16 17 18 18 20 21 18 21 23 23 19 17 15 13 14 12 13 13 13 16 16 14 14 12 9 12 12 13 13 15 16 14 12 12 10 7 6 6 7 8 9 10 12 12 14 15 19 18 19 19 19 19 19 18 18 21 18 17 18 15 13 13 13
2 1 1 3 5 8 8 8 8 9 9 10 12 14 14 15 16 15 13 14 15 15 17 17 18 19 20 19 21 23 23 22 24 18 20 18 17 18 17 18 15 16 16 15 14 14 16 13 15 13 13 13 15 16 14 12 10 8 7 6 7 8 9 10 11 12 13 14 17 19 19 21 21 21 20 20 19 19 17 19 18 19 16 15 14
0 2 4 5 7 8 9 9 9 10 11 11 11 12 13 14 16 16 15 14 14 16 18 18 19 20 20 19 20 20 19 18 16 22 18 19 20 18 18 17 17 18 18 18 18 16 14 15 14 13 12 12 14 13 15 14 11 7 7 7 7 8 9 10 12 12 12 13 15 16 18 20 22 20 20 20 20 19 16 17 16 16 16 16 14
1 2 3 5 8 9 10 10 10 11 12 13 13 14 14 14 15 15 14 15 15 16 18 19 19 20 20 18 19 21 21 22 23 19 22 21 19 19 18 18 18 18 16 17 17 17 15 16 12 14 13 12 12 15 13 12 8 8 7 8 8 9 9 9 11 13 12 13 14 15 17 19 21 22 25 22 22 20 17 16 16 17 17 17 15
2 3 4 5 6 7 8 10 11 12 13 14 14 14 15 16 16 16 16 15 15 17 19 19 18 17 17 19 22 19 16 16 19 19 17 20 20 20 20 19 18 18 18 17 18 18 18 18 18 15 12 11 11 11 15 25 22 13 10 9 9 9 8 8 10 12 12 13 14 16 18 26 25 25 24 25 25 24 23 21 18 17 19 17 17
2 3 4 5 6 7 8 9 10 11 12 13 13 14 15 16 15 16 16 15 15 18 17 18 19 20 23 22 19 23 23 24 21 19 23 21 17 16 17 18 18 18 19 18 17 18 17 16 16 14 14 12 11 11 22 24 25 27 17 12 10 10 9 8 9 10 12 13 13 15 17 22 23 22 21 26 25 26 25 26 27 26 24 23 19
1 3 4 6 7 8 9 10 10 11 12 12 14 15 15 16 16 16 17 16 16 16 17 18 18 19 20 22 25 21 18 16 20 20 17 18 18 17 17 18 18 19 17 16 17 18 18 18 16 15 15 13 12 18 25 26 26 28 23 13 10 10 10 9 9 10 11 12 13 15 14 15 16 20 20 21 24 26 25 26 28 28 28 30 30
1 3 5 5 6 6 7 9 10 11 12 13 13 15 15 16 17 17 16 17 17 16 17 18 19 21 24 22 16 20 22 24 24 20 18 17 16 17 17 17 17 16 16 17 17 17 17 16 17 18 16 14 13 20 25 26 25 26 27 21 11 10 10 9 9 10 11 12 13 13 14 15 16 25 20 18 19 19 23 26 26 27 27 29 28
0 1 3 4 5 6 6 7 9 11 11 12 11 12 14 14 15 16 16 16 17 18 17 18 19 19 18 19 22 19 18 18 20 24 24 19 18 18 17 16 16 16 16 17 16 17 17 17 17 17 15 13 12 16 23 25 25 26 27 23 12 12 11 10 10 11 11 12 14 13 13 15 15 18 17 19 18 18 16 16 16 16 17 22 25
1 3 3 4 5 7 8 10 10 11 11 12 13 12 13 14 14 16 15 16 16 17 18 17 18 20 21 20 19 20 22 23 20 17 18 20 20 20 19 16 14 15 15 15 15 15 15 15 16 17 15 15 14 22 24 26 26 27 27 22 12 11 10 10 11 11 12 13 14 14 15 16 16 17 16 20 19 18 17 16 16 16 16 17 17
1 2 3 3 5 7 8 9 8 10 11 11 12 13 14 16 14 14 15 15 16 17 18 17 18 21 20 20 21 22 22 23 23 22 20 20 18 18 18 16 15 15 13 14 14 13 14 14 15 16 17 15 13 22 24 25 26 26 27 14 11 11 11 10 11 12 12 12 13 13 14 16 17 18 21 26 22 18 18 20 19 17 14 14 15
2 1 1 2 2 4 5 7 9 10 11 12 11 12 14 15 15 15 15 15 15 17 18 20 19 19 20 20 20 21 22 22 21 22 21 20 19 20 16 12 14 14 14 14 14 14 13 13 15 15 16 15 13 19 24 25 25 26 21 11 10 9 10 11 11 12 12 12 12 13 13 15 18 18 23 27 26 24 19 21 19 17 15 15 13
2 1 1 2 2 3 5 7 9 10 10 10 11 13 14 14 15 15 16 17 16 17 19 18 19 21 21 21 21 21 23 22 21 20 20 18 17 15 16 13 12 13 13 14 12 13 13 13 16 17 17 15 14 15 22 23 25 26 21 13 10 10 11 11 11 11 11 12 13 18 17 16 18 19 26 29 29 25 20 21 20 19 16 15 13
3 2 1 2 3 5 6 8 8 11 11 10 12 12 13 14 14 15 15 16 17 18 19 19 21 21 21 21 20 21 22 21 20 20 19 19 18 16 16 13 12 12 13 12 12 12 13 12 13 16 22 20 13 15 23 25 26 25 20 12 12 10 11 11 9 11 11 11 11 13 20 18 18 21 29 29 31 26 20 21 21 20 19 19 17
4 3 3 2 2 5 7 9 10 10 10 11 10 11 11 13 14 14 14 15 16 18 19 19 20 21 20 20 21 21 18 17 18 18 17 18 18 16 13 12 12 10 11 11 11 12 14 14 13 15 15 15 14 14 17 25 26 26 27 14 10 11 12 11 10 10 11 10 11 10 16 22 24 25 29 30 30 30 22 20 19 20 20 21 15
4 2 3 3 3 3 5 8 9 10 11 10 9 11 12 12 13 13 15 16 18 18 18 19 19 20 20 20 16 15 19 20 18 17 16 16 12 14 14 12 11 10 10 10 12 12 13 14 13 13 14 14 12 13 16 24 25 26 27 22 11 12 11 10 9 10 11 11 10 11 11 20 26 28 29 30 31 31 26 20 21 21 22 20 18
5 4 3 2 2 3 5 7 8 10 10 9 9 11 12 13 13 15 16 16 16 18 18 18 20 19 20 21 22 20 20 18 18 19 21 19 18 16 15 15 10 9 11 12 12 12 12 12 13 13 13 13 14 20 16 21 25 25 26 26 14 11 11 9 11 11 12 11 11 10 12 19 27 30 32 32 32 31 30 19 22 23 22 24 20
2 2 2 4 3 4 6 8 8 9 7 8 8 10 11 11 13 15 15 16 16 17 18 19 18 18 20 22 21 22 21 17 18 20 21 20 17 16 16 15 13 10 10 11 12 11 11 12 12 11 11 11 11 11 17 13 16 20 23 24 24 16 18 13 12 13 13 12 10 11 12 21 26 29 30 31 31 33 28 21 26 21 24 29 23
3 4 3 3 1 3 5 7 7 6 7 7 8 10 11 13 14 13 15 15 15 16 17 18 17 18 20 20 22 22 18 17 19 19 20 18 18 18 18 15 15 9 8 9 9 9 10 11 10 9 9 9 9 9 12 17 15 20 21 23 24 26 24 16 14 13 12 10 9 11 13 21 26 28 30 30 30 30 23 26 23 23 26 25 16
3 3 2 2 2 3 5 7 7 5 6 6 7 10 12 14 13 14 16 17 17 18 17 18 19 19 19 18 20 20 19 18 18 18 19 17 19 18 17 16 15 13 8 8 9 9 10 10 9 9 8 9 9 10 10 14 19 20 23 24 26 28 27 26 18 14 11 10 13 17 20 23 25 27 29 29 27 30 30 25 25 25 21 13 14
4 2 2 1 2 2 4 6 8 6 6 5 7 8 12 14 13 13 15 16 17 18 18 19 18 18 19 19 21 21 19 18 19 17 16 14 16 17 15 16 15 14 15 15 15 12 10 9 9 10 10 10 9 9 10 11 12 15 17 22 25 26 26 25 24 16 17 18 18 19 22 24 24 23 21 18 15 18 25 25 25 24 15 15 14
3 3 2 2 3 4 5 6 8 6 6 6 7 7 8 11 12 13 13 15 16 17 17 16 18 18 17 18 19 17 19 17 16 16 15 13 15 14 15 15 14 15 15 15 16 17 14 8 8 9 9 10 10 9 9 9 9 9 9 11 14 16 22 22 17 15 15 13 15 17 15 19 17 23 23 22 22 22 18 15 13 14 14 15 15
5 2 3 3 3 3 4 6 7 7 7 7 8 8 9 10 10 12 13 14 15 15 16 16 18 16 15 16 17 22 21 17 17 14 16 17 15 16 16 15 15 16 16 16 16 16 15 14 12 9 8 9 9 8 7 8 8 8 8 9 9 10 10 11 12 13 12 12 13 15 18 15 15 15 15 12 12 11 12 12 12 12 12 13 16
3 2 4 4 2 3 4 5 7 6 7 8 8 8 9 10 11 12 13 14 14 15 15 15 15 14 15 15 15 16 16 17 18 17 13 11 14 16 16 16 15 13 14 14 15 15 15 14 11 10 12 11 9 9 8 6 7 10 10 8 8 9 10 11 14 16 12 11 11 12 11 13 13 14 12 12 11 12 12 14 15 14 12 12 11
3 4 4 3 2 2 4 5 6 6 7 7 8 8 9 9 11 11 12 13 15 14 14 14 13 14 14 16 16 16 16 16 16 18 18 16 17 21 18 15 15 25 30 29 24 16 16 13 12 11 11 11 12 11 15 18 19 19 19 18 15 14 15 12 14 20 14 11 12 12 12 14 14 14 15 14 14 14 15 15 14 16 15 14 14
4 4 3 2 1 2 3 4 5 5 6 7 8 8 9 10 11 12 12 12 13 12 11 12 13 13 15 15 14 16 16 14 15 17 17 19 19 20 24 26 27 28 28 32 30 31 30 28 20 14 16 22 23 24 20 16 18 18 18 16 16 17 17 18 20 16 13 12 12 13 13 13 14 14 14 14 14 14 15 15 14 14 13 16 17
Wind_Direction
23 344 33 16 14 1 348 342 331 330 335 338 340 338 337 333 332 332 331 330 330 327 326 327 326 323 318 314 312 308 303 299 297 298 292 286 283 282 281 276 271 271 273 269 261 259 263 280 292 295 296 295 295 294 296 271 231 215 208 191 181 173 178 177 170 153 139 95 96 106 79 59 93 137 150 159 160 157 151 156 149 142 146 150 150
360 358 333 350 11 358 350 332 334 349 340 341 337 333 332 332 335 331 331 330 327 324 322 324 325 318 314 313 312 309 311 312 309 307 300 290 284 280 278 275 273 272 269 262 256 250 263 277 284 290 297 299 297 296 292 290 267 223 199 196 194 179 178 172 164 149 164 155 147 124 82 62 28 64 120 153 158 163 161 152 152 150 151 144 147
316 294 309 347 4 346 342 342 340 332 325 331 327 335 338 341 339 334 331 328 324 324 328 327 322 316 316 316 320 319 315 316 312 309 306 298 292 287 280 276 274 272 266 259 256 252 252 264 275 283 292 298 300 298 299 291 283 247 226 193 186 205 179 174 167 172 162 151 128 119 142 127 22 15 358 90 190 166 168 170 158 154 149 145 145
284 280 304 333 350 341 347 339 324 327 333 335 343 343 343 343 339 334 330 327 325 328 333 329 324 325 327 322 317 313 311 314 309 305 303 299 295 293 284 277 270 266 264 264 260 253 246 254 269 277 284 291 293 296 293 289 284 274 238 206 177 178 194 181 183 179 160 146 160 173 165 153 143 205 171 242 339 191 167 175 167 158 151 144 142
231 293 313 324 338 325 313 306 318 342 342 344 347 348 343 338 334 331 328 327 326 331 334 330 326 326 323 318 314 309 299 295 299 302 308 315 317 308 301 284 269 264 266 266 258 252 244 246 254 267 276 280 291 291 292 290 288 281 242 215 194 172 173 178 186 187 176 180 152 117 98 161 194 172 152 26 355 150 203 174 171 157 157 153 153
176 210 238 252 286 287 308 322 344 344 347 349 350 346 341 333 330 331 331 332 333 333 335 334 331 328 327 326 325 323 315 316 315 317 319 312 306 304 304 302 289 277 270 266 256 248 244 239 250 263 270 274 283 291 291 290 289 281 261 237 208 189 168 172 175 193 187 185 186 169 154 173 166 142 152 172 346 326 190 233 174 167 170 159 156
272 290 313 331 280 277 305 344 345 347 346 350 350 341 334 328 330 334 334 333 333 333 335 334 328 325 322 318 311 308 306 302 303 305 307 305 302 296 295 299 297 286 274 266 262 249 240 236 246 254 261 274 269 289 293 292 289 282 283 249 216 188 187 175 177 179 178 195 188 185 74 87 146 152 173 139 150 174 347 171 191 172 171 169 160
194 231 253 242 253 267 344 351 352 346 346 350 341 335 330 328 331 334 331 331 331 331 328 328 322 319 317 315 311 309 305 303 307 307 305 303 300 304 310 308 306 300 284 273 263 252 240 238 241 249 259 270 276 284 293 292 286 284 275 268 242 200 176 186 182 180 176 186 189 180 89 128 168 193 171 164 165 160 179 329 339 225 171 177 170
184 218 228 246 263 323 354 359 353 353 352 345 338 331 329 330 330 329 327 329 329 327 324 321 319 314 312 312 311 308 308 307 306 303 305 309 306 305 300 301 302 302 299 286 276 267 250 231 235 246 247 261 275 283 296 295 288 283 272 278 277 243 197 178 179 185 187 180 177 175 120 140 164 178 184 209 153 153 169 168 173 163 169 179 173
220 208 231 248 254 337 19 1 356 349 341 337 331 331 330 328 325 326 327 328 326 326 324 320 319 316 314 312 308 307 307 305 305 303 304 305 300 303 305 303 302 301 303 302 288 269 250 225 228 241 245 253 261 274 291 299 299 289 284 274 278 264 224 200 189 189 190 183 182 169 159 147 150 162 182 183 207 172 160 179 169 164 172 183 171
217 230 246 237 264 32 13 4 346 341 339 335 334 334 331 328 326 324 322 321 324 325 325 321 320 319 315 312 309 305 306 306 308 307 306 301 304 310 311 307 303 300 302 301 296 276 247 224 221 232 237 243 254 265 274 292 296 299 292 286 280 280 263 210 209 201 191 187 182 178 172 166 166 180 181 181 169 171 153 161 168 177 168 153 183
219 232 241 263 18 14 14 357 344 333 334 335 335 332 327 324 325 321 319 321 322 325 323 322 323 321 318 314 311 307 304 304 305 306 306 304 308 309 311 307 304 299 301 306 306 303 281 251 220 225 235 230 244 255 267 273 288 296 293 281 280 279 281 254 204 200 204 195 185 184 184 180 178 177 176 171 173 176 164 165 162 142 90 59 56
220 231 258 26 21 2 352 337 329 329 332 334 333 330 327 325 325 322 317 322 323 326 326 327 326 323 322 319 314 310 307 304 301 301 305 304 306 307 310 308 307 305 306 304 304 302 300 277 239 224 235 231 236 249 262 271 278 287 286 281 267 264 268 271 233 198 195 199 193 190 183 184 183 181 171 172 174 161 159 155 169 163 160 146 128
213 215 42 30 2 344 332 315 316 324 333 335 332 330 325 322 322 320 315 320 323 325 327 326 323 320 319 316 313 313 310 307 304 303 305 304 304 302 302 303 302 301 301 299 299 301 300 289 264 243 233 233 230 242 258 266 272 276 279 274 272 264 260 268 253 210 192 204 201 186 185 184 180 167 168 168 159 156 162 162 153 141 140 148 134
174 53 53 9 338 327 313 307 316 329 332 331 329 327 325 323 323 320 318 323 326 326 328 325 322 321 320 316 314 310 308 309 307 305 304 305 301 297 298 299 300 300 297 296 296 296 298 297 277 238 235 230 226 237 249 262 268 276 277 279 270 258 260 257 259 225 193 193 200 194 186 183 176 171 170 173 171 169 162 159 148 135 90 99 148
51 66 6 325 312 313 312 314 319 327 330 327 326 326 324 322 321 318 318 319 322 325 325 322 318 319 319 319 316 313 312 307 302 302 301 302 301 299 299 300 297 296 294 294 295 296 298 299 292 264 249 236 226 225 243 256 268 273 282 282 279 272 264 263 265 241 204 192 192 193 190 186 174 172 173 172 173 168 160 160 164 157 153 160 152
45 48 299 294 306 304 289 294 323 329 329 326 322 323 321 321 321 320 319 320 322 323 320 317 315 317 319 317 317 317 312 311 309 306 306 303 300 301 302 300 293 290 290 292 296 293 294 299 297 279 252 242 229 218 227 246 255 264 272 284 284 278 265 266 264 259 221 190 195 187 185 187 177 173 172 169 168 166 167 170 171 167 167 161 166
196 223 251 264 280 294 293 305 323 322 320 320 320 321 318 317 318 317 318 321 322 322 320 319 319 319 316 317 316 312 312 310 306 307 307 303 301 298 297 296 294 291 288 287 289 296 300 302 298 287 266 248 232 223 220 238 248 253 259 270 279 280 272 266 258 260 238 201 188 188 181 180 179 175 172 172 170 170 170 175 178 176 168 166 170
209 245 267 281 295 299 296 305 307 308 312 310 310 313 313 314 314 313 312 312 314 316 312 310 313 311 310 311 311 312 311 306 307 303 301 299 296 295 295 293 294 292 287 286 293 298 300 300 297 291 278 258 244 230 218 232 242 253 253 267 278 280 276 264 258 254 242 209 189 183 181 179 176 181 174 172 172 170 172 175 178 174 181 173 168
221 238 254 265 284 288 291 305 310 313 313 310 310 312 312 312 312 313 310 312 315 313 312 310 311 309 308 307 307 308 305 308 305 302 302 296 298 296 294 294 291 292 287 289 295 297 299 296 295 294 288 277 265 249 221 226 243 247 251 262 274 283 280 272 262 256 248 214 188 182 180 177 175 177 174 173 172 174 171 172 175 178 183 179 168
225 224 243 269 278 280 286 293 300 304 301 306 312 312 309 309 310 313 314 316 316 315 313 310 311 309 309 309 308 309 309 304 300 300 298 300 298 296 292 291 290 289 296 296 295 295 295 298 303 305 300 285 269 264 244 229 241 253 251 258 279 282 282 279 269 263 255 224 192 181 181 178 172 174 178 173 172 170 168 171 173 176 173 169 170
207 223 253 274 266 272 285 297 303 307 310 314 315 312 313 312 312 313 314 312 314 315 315 313 312 308 307 309 306 306 303 302 303 300 296 299 297 299 297 291 289 289 291 291 292 291 290 294 297 296 296 287 270 258 253 234 244 258 264 255 276 283 286 285 278 264 253 231 197 184 180 175 174 177 173 175 171 170 169 168 173 172 170 172 175
213 225 251 252 256 289 305 319 323 320 317 319 317 316 313 314 315 316 315 312 314 311 311 311 308 307 307 306 306 304 304 303 299 297 297 295 297 293 294 290 289 289 286 286 289 288 291 294 294 294 294 287 272 258 255 244 244 253 266 273 267 278 281 282 280 270 254 234 205 185 179 174 175 176 174 175 170 171 169 170 172 171 168 166 163
223 241 250 245 300 317 326 331 329 328 325 320 315 315 315 315 316 315 313 314 316 317 316 314 311 307 307 306 306 305 300 300 299 298 291 293 295 294 293 290 289 285 287 289 288 290 290 291 292 291 290 286 275 258 255 244 241 244 258 269 278 276 276 277 276 276 261 233 206 186 177 174 174 176 175 174 174 171 170 171 168 169 165 163 161
240 261 262 304 331 330 327 329 326 321 320 318 317 319 319 317 319 318 314 316 317 317 317 316 314 313 313 316 312 311 306 303 304 298 296 296 294 294 293 291 292 291 290 291 288 285 281 285 289 295 298 298 286 265 261 256 242 239 243 259 272 278 279 278 278 278 273 238 210 190 176 174 174 174 174 174 175 174 173 167 166 165 164 163 159
293 299 3 344 320 319 328 331 326 323 321 319 319 320 319 316 314 317 316 318 318 317 316 316 316 315 316 312 308 309 313 313 308 305 300 298 296 290 292 288 286 284 282 277 279 285 285 287 288 294 297 298 300 289 265 258 249 239 237 247 263 272 279 283 281 280 278 249 208 194 178 175 176 175 176 178 176 177 172 170 165 161 161 158 155
303 287 318 322 331 333 333 328 323 318 321 320 320 320 321 320 319 321 320 316 315 315 315 316 316 317 314 312 311 314 316 313 315 306 310 303 303 302 300 300 298 295 295 297 299 299 296 291 289 290 290 292 290 290 286 267 252 237 238 249 261 272 279 285 283 278 276 266 222 193 180 177 179 179 176 175 176 175 173 173 169 162 159 158 154
289 27 356 337 326 329 328 323 321 321 320 321 318 317 320 321 320 321 320 319 317 317 317 316 316 313 311 313 314 304 300 303 306 308 304 305 302 302 299 298 299 296 294 292 290 287 286 286 285 282 281 282 282 280 278 273 257 242 244 247 254 268 278 284 287 280 277 271 239 201 180 182 182 180 176 175 173 175 172 170 168 159 157 156 154
60 2 346 334 334 325 322 322 323 324 323 321 322 323 324 320 317 317 317 317 317 316 314 314 313 309 309 309 310 316 312 312 310 311 309 306 306 300 299 298 295 292 288 286 285 284 282 279 273 272 276 275 277 277 276 271 266 261 249 250 258 262 269 281 286 286 283 277 250 208 187 185 183 180 177 174 176 172 166 167 166 162 160 157 153
37 350 332 327 320 319 318 323 324 325 323 324 327 327 323 322 320 320 320 319 322 317 317 313 309 307 305 311 310 303 299 298 306 302 305 308 302 300 296 295 293 292 290 288 286 283 279 277 279 275 268 270 271 273 274 274 271 264 256 256 257 260 264 269 276 283 283 276 253 216 192 184 182 178 175 176 175 171 169 166 166 165 160 157 156
21 335 322 319 316 318 321 321 321 320 323 327 325 324 320 316 318 319 319 319 320 315 310 309 307 310 315 310 311 313 307 312 315 314 308 303 299 296 297 295 294 292 291 290 287 286 284 282 279 275 271 265 266 269 272 274 274 269 262 254 253 259 258 261 268 274 279 279 256 219 196 183 178 176 176 178 176 175 172 168 167 168 166 161 157
333 313 316 321 324 322 322 317 317 322 329 332 327 321 320 319 320 321 319 320 318 315 311 307 304 304 308 314 312 311 307 302 306 301 301 299 295 293 291 292 292 291 289 286 283 280 279 277 274 270 265 261 261 265 268 269 268 268 266 254 248 254 256 258 265 269 274 278 260 224 196 178 178 179 176 178 178 177 174 172 170 169 169 166 162
302 317 317 315 312 312 311 315 321 334 332 328 326 320 321 322 321 320 322 319 318 315 311 308 308 310 314 313 308 304 305 307 307 305 304 300 296 294 292 291 289 289 289 286 284 281 278 277 271 268 264 259 255 261 264 265 265 264 264 260 251 248 249 255 259 265 270 273 269 228 196 175 180 180 174 175 175 175 175 173 171 168 169 170 168
257 290 293 299 302 306 313 322 330 328 327 320 320 318 315 319 317 316 318 315 316 314 313 309 309 306 303 309 310 312 308 305 306 306 305 300 296 290 288 284 282 281 280 281 279 276 274 272 272 268 267 265 259 263 266 268 268 263 259 255 245 244 245 248 255 260 266 267 266 238 198 178 178 177 175 173 172 170 170 169 169 168 169 172 167
347 303 295 297 307 317 326 336 335 329 323 323 321 324 322 320 320 316 315 316 315 313 312 310 308 311 315 315 312 305 300 301 300 296 299 299 297 297 291 285 282 278 277 276 274 272 268 266 271 271 259 249 250 257 262 262 264 262 256 249 237 242 243 246 252 255 260 259 260 242 201 181 173 176 179 174 169 168 165 166 171 175 172 172 170
215 242 287 315 327 331 334 327 323 322 324 326 323 328 326 318 317 313 313 315 314 313 312 315 314 315 314 312 308 309 312 309 303 299 296 296 291 286 287 282 277 274 271 270 270 267 262 257 261 265 268 270 267 263 263 261 258 259 256 240 237 238 245 246 250 255 255 255 256 243 211 181 172 178 179 173 168 163 165 167 173 175 173 175 178
190 180 256 325 342 338 330 324 324 327 324 326 328 329 323 319 318 318 317 316 317 315 317 319 315 310 306 308 313 310 305 305 304 301 295 292 295 293 286 276 271 271 268 268 268 264 267 267 270 268 260 257 255 257 260 258 255 253 253 244 240 241 245 246 248 254 256 255 251 240 214 186 174 177 176 173 167 161 166 170 172 173 174 174 179
148 142 15 22 348 332 336 335 325 321 321 326 332 328 322 318 317 318 320 320 320 319 319 317 313 311 315 315 310 306 302 301 297 296 293 291 288 287 279 272 265 265 267 265 263 264 262 260 261 265 261 252 252 253 257 255 251 249 243 243 240 244 244 244 251 250 254 252 247 235 211 189 175 176 175 172 168 166 169 171 169 168 170 176 177
131 117 64 358 354 349 338 332 322 319 327 335 331 326 322 319 319 320 321 319 321 321 322 319 315 315 310 306 305 304 300 297 296 294 295 294 292 285 281 274 265 259 260 261 258 260 261 259 256 258 263 263 258 257 257 256 253 247 242 233 236 235 243 241 242 250 249 246 241 229 208 190 178 171 174 173 170 170 172 172 170 168 173 178 180
114 108 103 65 15 360 343 333 324 319 330 332 330 324 318 316 316 319 319 320 322 323 317 313 309 308 309 308 308 303 294 290 285 289 294 296 293 285 276 265 262 253 257 260 260 259 260 261 264 265 259 252 255 254 253 253 251 247 240 231 224 231 235 237 235 243 248 239 230 219 205 191 174 170 175 176 174 173 173 174 170 174 175 183 171
116 87 59 46 31 16 332 319 317 323 332 332 330 324 320 320 319 319 322 322 321 317 315 314 312 309 306 305 307 303 303 306 305 304 304 299 298 301 290 270 262 261 251 255 258 259 260 262 261 257 259 260 256 254 254 251 249 245 238 230 225 227 232 232 238 236 238 234 219 209 199 195 176 172 176 180 178 177 175 173 180 182 183 169 154
103 79 70 54 21 352 327 321 322 326 330 329 327 322 319 321 323 321 322 322 320 320 318 315 311 309 309 310 313 313 311 311 312 318 322 313 304 302 303 294 269 255 252 253 255 256 260 262 261 257 255 254 250 249 251 252 245 238 234 230 228 229 227 231 235 239 232 228 213 204 197 194 183 176 178 180 180 179 178 178 189 186 162 146 162
98 64 56 62 15 348 329 318 324 325 329 322 319 316 317 319 318 319 321 323 323 322 321 316 312 310 314 314 315 318 319 319 322 324 322 314 313 312 308 307 289 260 253 254 255 255 257 259 260 260 260 250 249 246 245 247 246 243 239 238 237 235 233 228 232 235 231 221 208 197 194 192 188 180 179 180 181 181 179 187 185 167 158 164 162
100 104 101 70 17 329 317 316 320 322 319 315 316 318 321 321 320 322 324 325 323 323 320 317 315 315 316 318 319 320 322 324 326 327 326 319 320 319 317 310 306 275 265 260 254 249 251 250 253 267 259 258 258 255 257 251 246 244 243 242 241 237 234 229 229 236 233 220 203 194 187 189 189 182 180 181 182 182 185 185 171 166 171 162 154
131 103 88 68 32 337 329 314 317 315 309 313 321 323 323 325 326 330 329 329 327 325 324 321 321 319 320 321 322 322 327 330 332 332 327 327 325 324 321 321 322 319 285 266 259 249 253 254 258 251 256 258 253 256 252 252 246 245 246 244 242 238 235 232 230 234 230 219 202 189 184 184 188 182 179 181 184 186 187 178 167 167 160 157 164
110 100 78 68 39 356 338 315 314 314 312 323 327 331 329 326 327 330 329 329 326 326 325 325 323 322 322 326 326 327 331 334 335 334 328 328 326 325 324 322 330 335 336 329 319 296 252 244 248 250 257 260 256 246 249 246 240 239 240 242 240 236 233 229 226 226 225 210 196 186 181 181 184 183 178 178 183 190 189 174 167 162 159 166 171
119 115 98 56 35 360 336 321 309 315 323 329 329 329 324 323 329 330 331 329 327 326 324 324 325 324 326 331 333 333 333 335 342 339 332 334 330 328 327 329 334 337 335 331 329 328 315 272 237 252 254 260 257 249 248 244 241 238 235 235 235 235 229 225 221 223 221 205 189 181 180 179 179 182 180 179 182 184 179 168 162 163 168 171 173
118 119 97 74 43 358 324 316 312 318 330 329 328 330 330 330 331 335 331 329 327 329 327 325 326 327 329 333 334 336 337 336 341 343 339 336 335 333 332 334 337 337 335 333 334 331 334 334 326 304 279 261 256 252 243 246 251 242 239 228 222 220 214 207 210 207 200 188 180 179 177 177 177 177 182 180 178 163 161 159 166 172 173 174 181
123 99 86 72 42 342 314 308 310 320 326 328 329 329 334 339 339 337 335 332 330 327 326 325 328 331 334 336 338 340 339 339 339 343 340 337 334 334 332 328 331 332 336 334 328 330 336 334 325 332 334 316 296 276 254 248 264 262 250 231 215 216 208 205 203 192 181 174 171 172 171 173 174 176 176 176 167 161 166 170 169 170 171 172 174
118 102 83 68 30 312 304 307 312 324 325 327 329 332 340 342 341 338 337 336 332 330 330 333 334 335 337 339 343 342 343 340 342 345 336 333 339 343 337 336 335 340 345 349 349 342 343 344 340 336 326 319 314 299 288 284 280 278 272 245 228 213 206 201 191 181 169 168 169 169 174 174 176 178 178 175 171 170 172 173 176 173 170 171 175
113 86 63 50 347 313 299 312 318 325 326 328 329 336 342 345 344 339 338 335 332 332 331 333 337 339 339 340 342 341 337 330 342 344 339 337 339 331 340 346 346 346 351 355 356 354 357 1 359 346 334 333 337 343 334 287 278 281 273 253 232 220 205 193 176 167 168 170 171 174 178 178 177 178 178 176 173 173 173 172 174 175 176 177 179